Tepic, Mexico

4:17 PM MST on March 26, 2017 (GMT -0700)
Tepic

Weather History for MMEP - November, 2012

Change the Weather History Date:

Sunday, November 18, 2012

  Actual Average Record
Temperature  
Mean Temperature 74 °F -  
Max Temperature 85 °F 82 °F 89 °F (1996)
Min Temperature 63 °F 50 °F 42 °F (2010)
Cooling Degree Days 9    
Growing Degree Days 24 (Base 50)    
Moisture  
Dew Point 63 °F    
Average Humidity 75    
Maximum Humidity 100    
Minimum Humidity 40    
Precipitation  
Precipitation 0.00 in - - ()
Sea Level Pressure  
Sea Level Pressure 30.09 in    
Wind  
Wind Speed 2 mph ()    
Max Wind Speed 9 mph    
Max Gust Speed -    
Visibility 5.8 miles    
Events Fog    
Averages and records for this station are not official NWS values.
T = Trace of Precipitation, MM = Missing Value Source: Averaged Metar Reports

Daily Weather History Graph

Daily Weather History Graph

Search for Another Location

Airport or City:

Trip Planner

Search our weather history database for the weather conditions in past years. The results will help you decide how hot, cold, wet, or windy it might be!

Date:

Astronomy

Nov. 18, 2012 Rise Set
Actual Time 6:12 AM MST 5:16 PM MST
Civil Twilight 5:49 AM MST 5:40 PM MST
Nautical Twilight 5:22 AM MST 6:07 PM MST
Astronomical Twilight 4:55 AM MST 6:34 PM MST
Moon 10:49 AM MST (11/18) 10:28 PM MST (11/18)
Length of Visible Light 11h 50m
Length of Day
11h 03m
Waxing Crescent, 31% of the Moon is Illuminated
Nov 18
Waxing Crescent
Nov 20
First Quarter
Nov 28
Full
Dec 6
Last Quarter
Dec 13
New

Hourly Weather History & Observations

Time (MST) Temp. Heat Index Dew Point Humidity Pressure Visibility Wind Dir Wind Speed Gust Speed Precip Events Conditions
2:00 AM 66 °F - 63 °F 87% 29.97 in 0 mi Calm Calm - -  
4:34 AM 64 °F - 62 °F 93% 29.96 in 4 mi SSE 4.5 mph - -   Mist
6:13 AM 59.0 °F - 59.0 °F 100% 30.21 in 0.2 mi Calm Calm - N/A Fog Fog
6:45 AM 59.0 °F - 59.0 °F 100% 30.21 in 0.2 mi Calm Calm - N/A Fog Fog
7:38 AM 64 °F - 62 °F 89% 30.02 in 11 mi Calm Calm - -   Mist
7:44 AM 59.0 °F - 59.0 °F 100% 30.09 in 0.2 mi Calm Calm - N/A Fog Fog
8:15 AM 62.6 °F - 60.8 °F 94% 30.25 in 3.0 mi Calm Calm - N/A   Scattered Clouds
10:07 AM 77.0 °F - 60.8 °F 57% 30.26 in 10.0 mi Calm Calm - N/A   Clear
10:36 AM 82 °F - 62 °F 40% 29.99 in 11 mi East 4.5 mph - -   Widespread Dust
11:18 AM 82.4 °F 82.5 °F 59.0 °F 45% 30.06 in 10.0 mi Calm Calm - N/A   Clear
11:52 AM 84.2 °F 83.5 °F 57.2 °F 40% 30.21 in 10.0 mi Calm Calm - N/A   Clear
12:50 PM 84.2 °F 83.5 °F 57.2 °F 40% 30.19 in 7.0 mi North 9.2 mph - N/A   Scattered Clouds
1:35 PM 83 °F - 67 °F 48% 29.94 in 11 mi West 6.7 mph - -   Widespread Dust
1:59 PM 84.2 °F 83.5 °F 57.2 °F 40% 30.02 in 7.0 mi North 8.1 mph - N/A   Mostly Cloudy
4:03 PM 80.6 °F 85.4 °F 73.4 °F 79% 30.12 in 7.0 mi North 9.2 mph - N/A   Scattered Clouds
4:34 PM 77 °F - 69 °F 71% 29.98 in 11 mi West 8.9 mph - -   Widespread Dust
4:47 PM 75.2 °F - 69.8 °F 83% 30.02 in 3.0 mi North 9.2 mph - N/A   Mostly Cloudy
5:54 PM 73.4 °F - 68.0 °F 83% 30.17 in 4.0 mi East 3.5 mph - N/A   Overcast
6:50 PM 71.6 °F - 69.8 °F 94% 30.19 in 6.0 mi East 3.5 mph - N/A   Scattered Clouds
7:32 PM 72 °F - 68 °F 85% 30.03 in 5 mi WNW 4.5 mph - -   Mist
7:51 PM 68.0 °F - 66.2 °F 94% 30.09 in 3.0 mi North 3.5 mph - N/A   Clear
10:33 PM 69 °F - 65 °F 81% 30.02 in 5 mi Calm Calm - -   Mist